Weather History for Hamadan, Iran

Change the Weather History Date:

Thursday, February 28, 2013

  Actual Average Record
Temperature  
Mean Temperature 44 °F -  
Max Temperature 60 °F - - ()
Min Temperature 28 °F - - ()
Degree Days  
Heating Degree Days 21    
Moisture  
Dew Point 19 °F    
Average Humidity 33    
Maximum Humidity 64    
Minimum Humidity 21    
Precipitation  
Precipitation 0.00 in - - ()
Sea Level Pressure  
Sea Level Pressure 30.04 in    
Wind  
Wind Speed 4 mph ()    
Max Wind Speed 23 mph    
Max Gust Speed -    
Visibility 6.2 miles    
Events      
T = Trace of Precipitation, MM = Missing Value Source: Averaged Metar Reports

Daily Weather History Graph

Daily Weather History Graph

Search for Another Location

Airport:

Trip Planner

Search our weather history database for the weather conditions in past years. The results will help you decide how hot, cold, wet, or windy it might be!

Date:

Astronomy

Feb. 28, 2013 Rise Set
Actual Time 6:46 AM IRST 6:10 PM IRST
Civil Twilight 6:21 AM IRST 6:36 PM IRST
Nautical Twilight 5:51 AM IRST 7:05 PM IRST
Astronomical Twilight 5:22 AM IRST 7:34 PM IRST
Moon 9:02 PM IRST (2/28) 7:50 AM IRST (2/28)
Length of Visible Light 12h 14m
Length of Day
11h 24m
Waning Gibbous, 93% of the Moon is Illuminated
Feb 28
Waning Gibbous
Mar 5
Last Quarter
Mar 11
New
Mar 19
First Quarter
Mar 27
Full

Hourly Weather History & Observations

Time (IRST) Temp. Windchill Dew Point Humidity Pressure Visibility Wind Dir Wind Speed Gust Speed Precip Events Conditions
12:30 AM 39.2 °F - 15.8 °F 39% 30.06 in - Calm Calm - N/A   Clear
1:30 AM 46.4 °F - 8.6 °F 22% 30.06 in - Calm Calm - N/A   Clear
2:30 AM 42.8 °F - 5.0 °F 21% 30.06 in - Calm Calm - N/A   Clear
3:30 AM 35.6 °F - 10.4 °F 35% 30.06 in - Calm Calm - N/A   Clear
4:30 AM 39.2 °F - 8.6 °F 28% 30.06 in - Calm Calm - N/A   Clear
5:30 AM 32.0 °F - 10.4 °F 41% 30.06 in - Calm Calm - N/A   Clear
6:30 AM 32.0 °F 27.5 °F 12.2 °F 44% 30.06 in - WNW 4.6 mph - N/A   Clear
7:30 AM 28.4 °F 23.3 °F 17.6 °F 64% 30.09 in - WSW 4.6 mph - N/A   Clear
8:30 AM 35.6 °F 31.7 °F 19.4 °F 52% 30.09 in - South 4.6 mph - N/A   Clear
9:30 AM 44.6 °F - 21.2 °F 39% 30.09 in - Calm Calm - N/A   Clear
10:30 AM 50.0 °F - 19.4 °F 30% 30.09 in - NNE 4.6 mph - N/A   Clear
11:30 AM 55.4 °F - 21.2 °F 26% 30.06 in - North 4.6 mph - N/A   Clear
12:30 PM 57.2 °F - 19.4 °F 23% 30.06 in - South 6.9 mph - N/A   Clear
1:30 PM 57.2 °F - 21.2 °F 25% 30.04 in - South 9.2 mph - N/A   Clear
2:30 PM 60.8 °F - 21.2 °F 22% 30.01 in - SSE 13.8 mph - N/A   Clear
3:30 PM 60.8 °F - 24.8 °F 25% 29.98 in 6.2 mi SSW 23.0 mph - N/A   Scattered Clouds
4:30 PM 59.0 °F - 24.8 °F 27% 29.98 in 6.2 mi South 11.5 mph - N/A   Scattered Clouds
5:30 PM 59.0 °F - 24.8 °F 27% 29.98 in 6.2 mi SSW 9.2 mph - N/A   Mostly Cloudy
6:30 PM 53.6 °F - 26.6 °F 35% 29.98 in 6.2 mi SSW 11.5 mph - N/A   Mostly Cloudy
7:30 PM 53.6 °F - 24.8 °F 33% 30.01 in 6.2 mi SSW 13.8 mph - N/A   Mostly Cloudy
8:30 PM 53.6 °F - 23.0 °F 30% 30.01 in 6.2 mi SSW 11.5 mph - N/A   Scattered Clouds
9:30 PM 51.8 °F - 24.8 °F 35% 30.01 in 6.2 mi SSW 6.9 mph - N/A   Scattered Clouds
10:30 PM 50.0 °F - 24.8 °F 37% 30.01 in - SSW 4.6 mph - N/A   Clear
11:30 PM 50.0 °F - 24.8 °F 37% 29.98 in - East 11.5 mph - N/A   Clear